SCP
0 0 0 0 0 0 0 0 0 0 0 0 0 0 0 0 0 0 0 0 0 0 0 0 0 -0 -0 -0 -0 0 0 0 0 0 0 0 0 0 0 0 0 0 0
0 0 0 0 0 0 0 0 0 0 0 0 0 0 0 0 0 0 -0 0 0 0 0 0 -0 -0 -0 -0 0 0 0 0 0 0 0 0 0 0 0 0 0 0 0
0 0 0 0 0 0 0 0 0 0 0 0 0 0 0 0 -0 0 0 0 0 0 0 0 0 0 -0 -0 0 0 0 0 0 0 0 0 0 0 0 0 0 0 0
0 0 0 0 0 0 0 0 0 0 0 0 0 0 -0 0 -0 -0 -0 0 0 0 0 0 0 -0 -0 -0 0 0 0 0 0 0 0 0 0 0 0 0 0 0 0
0 0 0 0 0 0 0 0 0 0 0 0 0 0 0 0 0 0 -0 -0 -0 0 0 0 0 -0 0 0 0 0 0 0 0 0 0 0 0 0 0 0 0 0 0
0 0 0 0 0 0 0 0 0 0 0 0 0 0 0 0 0 -0 -0 -0 0 0 0 0 -0 -0 0 0 0 0 0 0 0 0 0 0 0 0 0 0 0 0 0
0 -0 0 0 0 0 0 0 0 0 0 0 0 0 0 0 0 -0 -0 -0 -0 0 0 0 0 0 -0 0 0 0 0 0 0 0 0 0 0 0 0 0 0 0 0
0 -0 0 0 0 0 0 0 0 0 -0 0 0 0 0 0 0 0 0 -0 -0 0 -0 0 0 0 -0 0 0 0 0 0 0 0 0 0 0 0 0 0 0 0 0
-0 -0 -0 -0 0 0 0 0 -0 -0 -0 -0 0 0 0 0 0 0 0 0 -0 -0 -0 -0 0 0 -0 -0 0 0 0 0 0 0 0 0 0 0 0 0 0 0 0
0 -0 -0 -0 0 0 0 -0 -0 -0 -0 0 0 0 0 0 0 0 0 0 0 0 -0 -0 -0 -0 -0 -0 0 0 0 0 0 0 0 0 0 0 0 0 0 0 0
0 -0 -0 -0 -0 -0 -0 0 -0 -0 0 0 0 0 0 0 0 0 0 0 0 0 0 -0 -0 -0 -0 0 0 0 0 0 0 0 0 0 0 0 0 0 0 0 0
0 0 -0 -0 -0 -0 -0 0 0 -0 -0 -0 0 0 0 0 0 0 0 0 0 0 0 0 -0 -0 -0 -0 0 0 0 0 0 0 0 0 0 0 0 0 0 0 0
0 -0 -0 -0 -0 -0 -0 -0 0 0 0 0 -0 0 0 0 0 0 0 0 0 0 0 -0 -0 -0 -0 0 0 0 0 0 0 0 0 0 0 0 0 0 0 0 0
0 0 0 -0 -0 -0 0 0 0 0 0 0 0 -0 -0 0 0 0 0 0 -0 -0 -0 0 0 0 0 -0 0 0 0 0 0 0 0 0 0 0 0 0 0 0 0
0 0 0 0 0 0 0 0 0 0 0 0 0 0 -0 0 0 -0 0 -0 0 0 0 0 0 0 -0 -0 0 0 0 0 0 0 0 0 0 0 0 0 0 0 0
0 0 0 0 0 0 0 0 0 0 0 0 0 0 0 0 0 0 0 0 0 0 0 0 0 -0 -0 0 0 -0 -0 0 0 0 0 0 0 0 0 0 0 0 0
0 0 0 0 0 0 0 0 0 -0 0 -0 0 0 0 0 0 0 0 0 0 0 0 0 0 0 -0 0 0 0 0 0 0 0 0 0 0 -0 -0 -0 -0 -0 -0
0 0 0 0 0 0 0 0 0 0 0 0 -0 0 0 0 0 0 0 0 0 0 0 0 0 0 0 -0 -0 -0 0 -0 -0 -0 0 0 0 0 -0 -0 0 0 0
0 0 0 0 0 0 0 0 0 0 0 0 0 0 -0 -0 -0 -0 0 0 0 0 0 0 0 0 0 0 -0 -0 -0 -0 -0 -0 -0 -0 -0 -0 -0 0 0 0 0
0 0 0 0 0 0 0 0 0 0 0 0 0 0 0 0 0 0 0 0 0 0 0 0 0 0 0 0 0 -0 -0 -0 -0 -0 -0 -0 -0 0 0 0 0 0 -0
0 0 0 0 0 0 0 0 0 0 0 0 0 -0 -0 -0 -0 -0 0 0 0 0 0 0 0 0 0 0 -0 -0 0 0 0 -0 0 0 0 0 0 0 0 -0 -0
0 0 0 0 0 0 0 0 0 0 0 0 0 0 0 0 -0 -0 -0 -0 -0 -0 0 -0 -0 -0 -0 -0 0 0 0 0 0 0 0 0 0 0 0 0 -0 -0 0
0 0 0 0 0 0 0 0 0 0 0 0 0 0 0 0 0 0 0 -0 -0 -0 -0 -0 -0 -0 -0 -0 -0 -0 -0 -0 -0 -0 -0 0 0 0 0 0 0 0 0
0 0 0 0 0 0 0 0 0 0 0 0 0 0 0 0 0 0 0 0 0 0 0 0 0 -0 0 0 0 0 0 0 0 0 0 0 0 0 0 0 0 0 0
0 0 0 0 0 0 0 0 0 0 0 0 0 0 0 0 0 0 0 0 0 0 0 0 0 0 0 -0 0 0 0 0 0 0 0 0 0 0 0 0 0 0 0
0 0 0 0 0 0 0 0 0 0 0 0 0 0 0 0 0 0 0 0 0 0 0 0 0 0 0 0 0 0 0 0 0 0 0 0 0 0 0 0 0 0 0
Wind_Speed_500mb
42 36 29 25 20 19 18 18 16 15 14 12 14 17 16 15 15 15 12 11 11 11 12 12 15 16 15 19 20 15 18 21 17 22 18 6 11 18 30 33 42 47 44
41 33 25 21 21 18 17 15 14 16 15 13 15 16 17 17 16 10 11 10 10 11 12 13 12 22 18 16 14 16 19 21 16 29 15 5 9 16 31 36 43 45 50
37 30 30 26 18 16 17 16 14 16 16 16 19 21 19 12 8 6 7 9 9 10 7 7 9 13 24 19 17 12 23 23 23 22 16 14 11 19 36 49 51 63 53
34 34 29 21 14 18 16 16 15 19 20 21 21 21 15 13 10 6 7 5 4 3 1 3 3 8 17 20 21 21 28 26 28 15 28 20 22 23 47 53 74 73 86
41 33 27 17 18 20 16 14 16 24 23 20 21 18 15 12 7 3 3 4 9 8 5 10 12 9 14 14 16 24 34 32 36 38 36 34 32 55 68 74 87 92 79
41 35 26 14 19 19 16 14 18 27 26 24 18 15 11 10 6 1 4 7 7 4 8 12 15 11 10 13 14 17 22 31 41 39 38 41 50 59 59 71 86 75 74
43 38 27 18 16 14 15 16 17 26 29 27 21 14 11 7 4 5 5 7 5 1 6 11 14 16 17 11 14 16 21 25 22 29 42 49 64 46 48 69 68 72 76
45 39 30 21 14 14 12 18 17 21 27 24 20 15 13 11 7 5 6 6 4 4 5 3 6 10 23 26 23 31 24 25 26 32 36 45 52 44 45 69 77 76 70
47 41 31 15 12 14 10 15 17 18 24 23 19 15 13 9 8 8 9 7 5 4 3 5 6 9 16 16 12 11 45 32 29 29 30 27 42 38 48 68 72 71 62
48 41 25 14 11 14 12 10 18 18 22 25 19 14 11 11 14 8 11 9 7 6 4 3 4 5 10 12 11 23 34 43 41 39 33 34 37 32 55 63 69 57 55
47 38 29 22 13 13 13 8 19 21 21 25 21 17 12 15 11 11 11 9 8 9 8 10 6 4 12 14 20 25 35 39 44 42 40 43 42 55 49 58 59 35 35
47 45 34 26 24 21 16 10 18 19 20 19 19 17 17 18 15 12 12 12 11 10 12 14 15 11 18 20 32 32 35 37 43 44 48 46 53 58 49 56 44 23 32
45 42 37 30 27 23 19 11 17 19 18 19 17 17 21 19 15 11 9 7 6 9 15 23 23 21 27 29 33 36 38 43 49 54 54 53 52 52 54 50 35 30 24
46 43 40 33 26 24 20 10 13 15 21 19 19 18 20 19 16 14 10 12 13 15 20 24 33 30 34 34 36 39 42 51 56 62 63 59 55 52 45 41 40 44 32
45 43 38 35 29 25 20 7 6 4 13 19 15 15 14 14 13 10 13 15 17 18 26 26 29 37 41 39 39 45 48 56 61 60 59 53 50 45 45 45 48 45 34
47 45 41 34 34 30 21 10 10 10 14 13 10 6 2 7 13 16 21 17 18 26 30 33 36 39 43 45 44 43 43 48 47 51 48 44 46 47 47 47 46 41 32
46 46 41 39 37 33 26 16 17 16 19 19 17 13 8 5 13 21 25 23 21 24 27 31 36 39 42 46 45 44 45 45 39 40 42 42 42 42 42 43 42 40 35
42 44 39 38 40 37 30 21 22 19 18 20 18 17 16 13 13 22 28 26 25 23 22 26 31 37 41 47 49 50 43 41 43 42 42 42 41 42 43 43 43 41 36
47 46 42 39 38 38 34 27 21 27 23 19 18 18 19 21 21 22 26 23 22 23 21 20 20 25 33 41 42 45 48 49 49 47 46 46 44 45 46 44 39 36 35
53 44 38 36 39 44 42 36 28 26 31 29 25 23 22 24 29 30 30 28 27 25 25 23 21 19 19 24 32 42 47 49 51 50 50 52 52 51 50 46 43 44 43
55 53 51 44 39 39 44 43 37 29 30 32 32 28 26 26 23 30 32 31 31 30 30 30 29 27 28 28 29 34 39 43 46 48 49 51 52 54 53 53 51 50 50
50 52 54 53 49 47 45 45 45 40 31 34 34 33 31 33 33 31 29 32 34 34 35 36 36 37 36 37 39 42 44 47 49 50 50 49 50 51 52 54 55 56 57
39 44 51 53 50 46 44 44 47 47 42 35 35 38 39 40 39 38 37 34 34 35 37 42 45 46 46 47 49 49 52 57 57 57 57 57 57 57 57 58 59 61 63
29 35 39 40 38 40 41 40 40 43 45 43 39 39 39 39 40 40 37 36 37 39 42 44 47 49 52 56 58 59 61 60 60 61 62 66 68 67 66 66 66 66 66
17 27 27 25 26 28 30 33 36 37 41 46 47 44 44 45 46 46 46 46 45 46 45 46 49 50 50 56 61 65 67 67 69 68 69 72 76 77 78 77 77 76 73
25 24 25 27 26 23 23 24 25 31 36 41 47 50 50 51 51 50 50 54 56 58 59 59 56 55 53 53 54 56 61 67 71 73 75 81 83 86 87 89 89 88 87
Wind_Direction_500mb
171 169 171 174 185 200 198 211 217 209 194 192 188 191 192 193 187 196 209 223 245 250 238 234 231 225 226 227 221 227 220 215 218 177 172 129 180 169 180 183 178 181 180
169 170 177 175 171 181 191 186 176 172 172 176 174 175 174 168 175 193 218 238 248 252 258 265 259 233 221 217 216 226 213 207 209 187 172 179 123 152 176 174 178 175 176
172 174 164 162 166 178 177 170 169 172 169 161 147 141 142 150 192 238 235 244 248 259 277 267 254 229 215 215 219 217 186 194 184 190 179 144 108 163 177 181 180 176 178
173 164 163 160 168 167 163 162 166 167 162 158 152 145 153 170 203 241 234 238 237 213 174 21 115 161 186 208 212 208 191 188 177 219 178 158 144 154 178 169 156 171 166
168 164 156 151 161 165 164 164 174 170 162 166 163 157 172 187 207 198 194 190 178 166 148 137 138 108 129 165 198 202 185 196 180 174 167 154 147 146 144 145 139 143 143
164 162 160 143 161 162 157 162 170 173 172 166 159 160 170 186 167 194 165 146 157 164 185 163 143 128 169 145 138 169 192 194 180 180 173 162 153 149 149 154 145 148 140
166 167 162 137 145 143 168 170 173 180 185 181 170 162 175 185 229 295 196 179 182 159 148 188 197 193 183 173 181 169 184 194 219 206 181 177 167 169 157 159 151 155 150
175 177 172 154 153 143 151 171 175 184 200 177 182 188 195 205 241 233 181 201 168 170 170 208 247 233 182 196 225 224 200 193 197 197 190 182 179 164 170 166 161 154 151
186 182 176 170 169 171 170 176 185 184 183 179 186 195 206 217 234 195 135 134 137 154 117 61 105 134 160 203 223 186 197 190 186 190 191 183 175 177 188 167 160 159 155
186 181 164 175 162 177 193 185 186 178 184 178 187 198 208 209 191 178 154 167 182 193 197 187 94 140 144 158 179 163 168 183 178 182 186 177 178 185 175 172 165 164 160
184 177 178 188 208 205 201 193 188 184 183 192 197 209 212 187 193 170 172 185 210 218 202 177 142 102 137 130 149 144 164 172 177 176 176 183 178 172 170 173 173 174 176
186 187 187 204 221 213 210 212 195 197 198 195 205 212 190 169 176 190 214 215 229 234 196 186 169 139 138 126 143 136 145 154 165 169 174 177 172 170 169 170 176 186 198
190 189 191 210 220 216 213 222 205 203 207 203 208 211 183 173 175 208 196 198 195 141 151 166 163 132 139 127 138 140 140 144 153 158 162 169 167 163 168 177 181 174 184
193 192 199 215 218 213 211 229 218 216 198 207 211 210 187 189 200 211 191 168 155 145 150 156 151 141 144 134 131 137 149 151 152 151 149 153 160 166 176 182 183 170 163
194 193 199 214 217 212 207 223 203 217 208 210 227 224 219 219 212 200 179 172 157 148 154 154 162 151 154 149 143 142 144 146 150 155 156 164 173 181 185 186 184 184 185
196 194 206 209 210 208 203 186 162 162 175 180 203 212 170 152 173 167 158 157 151 152 158 149 156 161 165 159 161 159 157 161 167 166 169 174 177 178 180 183 188 195 196
197 194 207 214 213 207 200 192 170 163 167 168 174 175 178 185 177 170 162 157 154 155 159 164 170 172 181 176 171 170 169 172 179 182 185 188 186 186 189 193 198 204 208
199 202 205 220 219 214 206 201 192 186 171 166 170 164 168 163 169 180 177 173 171 166 170 176 181 184 189 192 188 182 178 183 188 190 193 198 202 203 205 206 211 219 228
203 206 209 223 228 222 216 210 207 203 198 190 180 180 180 177 173 180 192 196 188 184 177 174 177 186 192 201 205 203 205 204 202 200 204 209 211 212 215 219 225 235 244
210 211 210 218 227 225 221 218 216 215 213 213 208 204 207 203 202 198 200 204 209 208 204 197 192 194 197 199 203 208 208 205 208 216 218 218 220 223 225 230 239 248 254
216 216 219 223 228 230 229 227 225 225 222 220 218 219 226 233 235 231 225 220 216 213 213 215 219 217 213 212 211 211 211 211 213 216 220 224 229 233 238 244 252 258 264
221 222 224 227 230 233 234 234 232 230 231 228 223 224 229 236 239 243 246 244 241 237 233 233 233 232 232 229 225 222 223 224 224 224 227 231 235 240 246 252 258 263 268
215 230 230 231 233 238 242 243 239 237 238 238 233 231 233 237 243 247 251 253 252 249 247 245 244 243 240 239 239 239 238 236 234 234 236 239 242 246 250 255 261 266 268
221 224 234 237 241 245 249 253 256 252 247 246 245 240 238 240 242 248 253 255 257 258 257 256 253 251 248 246 246 245 245 245 245 245 245 247 250 252 255 259 262 267 271
204 210 213 222 235 247 255 260 266 267 265 259 256 256 257 255 255 257 260 261 263 264 265 265 264 262 258 255 252 250 250 250 250 250 250 250 252 253 255 258 262 266 270
126 155 177 192 204 221 236 243 262 270 272 269 269 270 272 274 276 276 275 273 273 272 271 271 271 269 266 263 261 258 254 252 251 251 252 254 254 255 256 258 260 262 266
Wind_Speed_850mb
42 36 29 25 20 19 18 18 16 15 14 12 14 17 16 15 15 15 12 11 11 11 12 12 15 16 15 19 20 15 18 21 17 22 18 6 11 18 30 33 42 47 44
41 33 25 21 21 18 17 15 14 16 15 13 15 16 17 17 16 10 11 10 10 11 12 13 12 22 18 16 14 16 19 21 16 29 15 5 9 16 31 36 43 45 50
37 30 30 26 18 16 17 16 14 16 16 16 19 21 19 12 8 6 7 9 9 10 7 7 9 13 24 19 17 12 23 23 23 22 16 14 11 19 36 49 51 63 53
34 34 29 21 14 18 16 16 15 19 20 21 21 21 15 13 10 6 7 5 4 3 1 3 3 8 17 20 21 21 28 26 28 15 28 20 22 23 47 53 74 73 86
41 33 27 17 18 20 16 14 16 24 23 20 21 18 15 12 7 3 3 4 9 8 5 10 12 9 14 14 16 24 34 32 36 38 36 34 32 55 68 74 87 92 79
41 35 26 14 19 19 16 14 18 27 26 24 18 15 11 10 6 1 4 7 7 4 8 12 15 11 10 13 14 17 22 31 41 39 38 41 50 59 59 71 86 75 74
43 38 27 18 16 14 15 16 17 26 29 27 21 14 11 7 4 5 5 7 5 1 6 11 14 16 17 11 14 16 21 25 22 29 42 49 64 46 48 69 68 72 76
45 39 30 21 14 14 12 18 17 21 27 24 20 15 13 11 7 5 6 6 4 4 5 3 6 10 23 26 23 31 24 25 26 32 36 45 52 44 45 69 77 76 70
47 41 31 15 12 14 10 15 17 18 24 23 19 15 13 9 8 8 9 7 5 4 3 5 6 9 16 16 12 11 45 32 29 29 30 27 42 38 48 68 72 71 62
48 41 25 14 11 14 12 10 18 18 22 25 19 14 11 11 14 8 11 9 7 6 4 3 4 5 10 12 11 23 34 43 41 39 33 34 37 32 55 63 69 57 55
47 38 29 22 13 13 13 8 19 21 21 25 21 17 12 15 11 11 11 9 8 9 8 10 6 4 12 14 20 25 35 39 44 42 40 43 42 55 49 58 59 35 35
47 45 34 26 24 21 16 10 18 19 20 19 19 17 17 18 15 12 12 12 11 10 12 14 15 11 18 20 32 32 35 37 43 44 48 46 53 58 49 56 44 23 32
45 42 37 30 27 23 19 11 17 19 18 19 17 17 21 19 15 11 9 7 6 9 15 23 23 21 27 29 33 36 38 43 49 54 54 53 52 52 54 50 35 30 24
46 43 40 33 26 24 20 10 13 15 21 19 19 18 20 19 16 14 10 12 13 15 20 24 33 30 34 34 36 39 42 51 56 62 63 59 55 52 45 41 40 44 32
45 43 38 35 29 25 20 7 6 4 13 19 15 15 14 14 13 10 13 15 17 18 26 26 29 37 41 39 39 45 48 56 61 60 59 53 50 45 45 45 48 45 34
47 45 41 34 34 30 21 10 10 10 14 13 10 6 2 7 13 16 21 17 18 26 30 33 36 39 43 45 44 43 43 48 47 51 48 44 46 47 47 47 46 41 32
46 46 41 39 37 33 26 16 17 16 19 19 17 13 8 5 13 21 25 23 21 24 27 31 36 39 42 46 45 44 45 45 39 40 42 42 42 42 42 43 42 40 35
42 44 39 38 40 37 30 21 22 19 18 20 18 17 16 13 13 22 28 26 25 23 22 26 31 37 41 47 49 50 43 41 43 42 42 42 41 42 43 43 43 41 36
47 46 42 39 38 38 34 27 21 27 23 19 18 18 19 21 21 22 26 23 22 23 21 20 20 25 33 41 42 45 48 49 49 47 46 46 44 45 46 44 39 36 35
53 44 38 36 39 44 42 36 28 26 31 29 25 23 22 24 29 30 30 28 27 25 25 23 21 19 19 24 32 42 47 49 51 50 50 52 52 51 50 46 43 44 43
55 53 51 44 39 39 44 43 37 29 30 32 32 28 26 26 23 30 32 31 31 30 30 30 29 27 28 28 29 34 39 43 46 48 49 51 52 54 53 53 51 50 50
50 52 54 53 49 47 45 45 45 40 31 34 34 33 31 33 33 31 29 32 34 34 35 36 36 37 36 37 39 42 44 47 49 50 50 49 50 51 52 54 55 56 57
39 44 51 53 50 46 44 44 47 47 42 35 35 38 39 40 39 38 37 34 34 35 37 42 45 46 46 47 49 49 52 57 57 57 57 57 57 57 57 58 59 61 63
29 35 39 40 38 40 41 40 40 43 45 43 39 39 39 39 40 40 37 36 37 39 42 44 47 49 52 56 58 59 61 60 60 61 62 66 68 67 66 66 66 66 66
17 27 27 25 26 28 30 33 36 37 41 46 47 44 44 45 46 46 46 46 45 46 45 46 49 50 50 56 61 65 67 67 69 68 69 72 76 77 78 77 77 76 73
25 24 25 27 26 23 23 24 25 31 36 41 47 50 50 51 51 50 50 54 56 58 59 59 56 55 53 53 54 56 61 67 71 73 75 81 83 86 87 89 89 88 87
Wind_Direction_850mb
171 169 171 174 185 200 198 211 217 209 194 192 188 191 192 193 187 196 209 223 245 250 238 234 231 225 226 227 221 227 220 215 218 177 172 129 180 169 180 183 178 181 180
169 170 177 175 171 181 191 186 176 172 172 176 174 175 174 168 175 193 218 238 248 252 258 265 259 233 221 217 216 226 213 207 209 187 172 179 123 152 176 174 178 175 176
172 174 164 162 166 178 177 170 169 172 169 161 147 141 142 150 192 238 235 244 248 259 277 267 254 229 215 215 219 217 186 194 184 190 179 144 108 163 177 181 180 176 178
173 164 163 160 168 167 163 162 166 167 162 158 152 145 153 170 203 241 234 238 237 213 174 21 115 161 186 208 212 208 191 188 177 219 178 158 144 154 178 169 156 171 166
168 164 156 151 161 165 164 164 174 170 162 166 163 157 172 187 207 198 194 190 178 166 148 137 138 108 129 165 198 202 185 196 180 174 167 154 147 146 144 145 139 143 143
164 162 160 143 161 162 157 162 170 173 172 166 159 160 170 186 167 194 165 146 157 164 185 163 143 128 169 145 138 169 192 194 180 180 173 162 153 149 149 154 145 148 140
166 167 162 137 145 143 168 170 173 180 185 181 170 162 175 185 229 295 196 179 182 159 148 188 197 193 183 173 181 169 184 194 219 206 181 177 167 169 157 159 151 155 150
175 177 172 154 153 143 151 171 175 184 200 177 182 188 195 205 241 233 181 201 168 170 170 208 247 233 182 196 225 224 200 193 197 197 190 182 179 164 170 166 161 154 151
186 182 176 170 169 171 170 176 185 184 183 179 186 195 206 217 234 195 135 134 137 154 117 61 105 134 160 203 223 186 197 190 186 190 191 183 175 177 188 167 160 159 155
186 181 164 175 162 177 193 185 186 178 184 178 187 198 208 209 191 178 154 167 182 193 197 187 94 140 144 158 179 163 168 183 178 182 186 177 178 185 175 172 165 164 160
184 177 178 188 208 205 201 193 188 184 183 192 197 209 212 187 193 170 172 185 210 218 202 177 142 102 137 130 149 144 164 172 177 176 176 183 178 172 170 173 173 174 176
186 187 187 204 221 213 210 212 195 197 198 195 205 212 190 169 176 190 214 215 229 234 196 186 169 139 138 126 143 136 145 154 165 169 174 177 172 170 169 170 176 186 198
190 189 191 210 220 216 213 222 205 203 207 203 208 211 183 173 175 208 196 198 195 141 151 166 163 132 139 127 138 140 140 144 153 158 162 169 167 163 168 177 181 174 184
193 192 199 215 218 213 211 229 218 216 198 207 211 210 187 189 200 211 191 168 155 145 150 156 151 141 144 134 131 137 149 151 152 151 149 153 160 166 176 182 183 170 163
194 193 199 214 217 212 207 223 203 217 208 210 227 224 219 219 212 200 179 172 157 148 154 154 162 151 154 149 143 142 144 146 150 155 156 164 173 181 185 186 184 184 185
196 194 206 209 210 208 203 186 162 162 175 180 203 212 170 152 173 167 158 157 151 152 158 149 156 161 165 159 161 159 157 161 167 166 169 174 177 178 180 183 188 195 196
197 194 207 214 213 207 200 192 170 163 167 168 174 175 178 185 177 170 162 157 154 155 159 164 170 172 181 176 171 170 169 172 179 182 185 188 186 186 189 193 198 204 208
199 202 205 220 219 214 206 201 192 186 171 166 170 164 168 163 169 180 177 173 171 166 170 176 181 184 189 192 188 182 178 183 188 190 193 198 202 203 205 206 211 219 228
203 206 209 223 228 222 216 210 207 203 198 190 180 180 180 177 173 180 192 196 188 184 177 174 177 186 192 201 205 203 205 204 202 200 204 209 211 212 215 219 225 235 244
210 211 210 218 227 225 221 218 216 215 213 213 208 204 207 203 202 198 200 204 209 208 204 197 192 194 197 199 203 208 208 205 208 216 218 218 220 223 225 230 239 248 254
216 216 219 223 228 230 229 227 225 225 222 220 218 219 226 233 235 231 225 220 216 213 213 215 219 217 213 212 211 211 211 211 213 216 220 224 229 233 238 244 252 258 264
221 222 224 227 230 233 234 234 232 230 231 228 223 224 229 236 239 243 246 244 241 237 233 233 233 232 232 229 225 222 223 224 224 224 227 231 235 240 246 252 258 263 268
215 230 230 231 233 238 242 243 239 237 238 238 233 231 233 237 243 247 251 253 252 249 247 245 244 243 240 239 239 239 238 236 234 234 236 239 242 246 250 255 261 266 268
221 224 234 237 241 245 249 253 256 252 247 246 245 240 238 240 242 248 253 255 257 258 257 256 253 251 248 246 246 245 245 245 245 245 245 247 250 252 255 259 262 267 271
204 210 213 222 235 247 255 260 266 267 265 259 256 256 257 255 255 257 260 261 263 264 265 265 264 262 258 255 252 250 250 250 250 250 250 250 252 253 255 258 262 266 270
126 155 177 192 204 221 236 243 262 270 272 269 269 270 272 274 276 276 275 273 273 272 271 271 271 269 266 263 261 258 254 252 251 251 252 254 254 255 256 258 260 262 266